{"data":{"norad_id":53016,"epoch":"2026-05-25T03:19:44.264928Z","epoch_age_seconds":62758,"freshness":"FRESH","line1":"1 53016U 22076AG  26145.13870677 -.00000512  00000+0 -14085-4 0  9990","line2":"2 53016  53.2131 100.9277 0001218  91.1154 268.9978 15.08844826214520","mean_motion":15.08844826,"eccentricity":0.0001218,"inclination_deg":53.2131,"raan_deg":100.9277,"arg_perigee_deg":91.1154,"mean_anomaly_deg":268.9978,"bstar":-1.4085e-5,"rev_number":21452,"period_min":95.437249423288,"perigee_km":538.8860418174,"apogee_km":540.57123388678,"semimajor_km":6917.8656378521,"source":"CELESTRAK","updated_at":"2026-05-25T13:38:17.280032Z"}}